| time (UTC) | temp C | wind direction | speed KPH | gust KPH | rain 1hr cm | rain 24hr cm | rain mn cm | humidity % | barometer mb |
| 20260507070637 | 7 | 270 | 9.7 | 14.5 | 0.00 | 0.61 | 0.00 | 85 | 1007.3 |
| 20260507070117 | 7 | 225 | 9.7 | 19.3 | 0.00 | 0.61 | 0.00 | 85 | 1007.3 |
| 20260507065617 | 7 | 270 | 4.8 | 8.0 | 0.00 | 0.61 | 0.00 | 85 | 1007.4 |
| 20260507065117 | 7 | 225 | 9.7 | 12.9 | 0.00 | 0.61 | 0.00 | 85 | 1007.4 |
| 20260507064617 | 7 | 248 | 1.6 | 9.7 | 0.00 | 0.61 | 0.00 | 85 | 1007.4 |
| 20260507064117 | 7 | 248 | 4.8 | 6.4 | 0.00 | 0.61 | 0.00 | 85 | 1007.5 |
| 20260507063616 | 7 | 248 | 6.4 | 11.3 | 0.00 | 0.61 | 0.00 | 85 | 1007.5 |
| 20260507063117 | 7 | 248 | 6.4 | 11.3 | 0.00 | 0.61 | 0.00 | 85 | 1007.6 |
| 20260507062637 | 7 | 248 | 9.7 | 14.5 | 0.00 | 0.61 | 0.00 | 85 | 1007.6 |
| 20260507062117 | 7 | 248 | 6.4 | 11.3 | 0.00 | 0.61 | 0.00 | 85 | 1007.5 |
| 20260507061617 | 7 | 248 | 4.8 | 8.0 | 0.00 | 0.61 | 0.00 | 85 | 1007.5 |
| 20260507061117 | 7 | 225 | 6.4 | 11.3 | 0.00 | 0.61 | 0.00 | 86 | 1007.5 |
| 20260507060617 | 7 | 248 | 8.0 | 12.9 | 0.00 | 0.61 | 0.00 | 86 | 1007.5 |
| 20260507060116 | 7 | 248 | 6.4 | 9.7 | 0.00 | 0.61 | 0.00 | 86 | 1007.7 |
| 20260507055617 | 7 | 248 | 6.4 | 11.3 | 0.00 | 0.61 | 0.00 | 86 | 1007.7 |
| 20260507055117 | 7 | 248 | 4.8 | 8.0 | 0.00 | 0.61 | 0.00 | 86 | 1007.7 |
| 20260507054617 | 7 | 248 | 3.2 | 4.8 | 0.00 | 0.61 | 0.00 | 86 | 1007.8 |
| 20260507054137 | 7 | 248 | 3.2 | 4.8 | 0.00 | 0.61 | 0.00 | 86 | 1007.8 |
| 20260507053616 | 7 | 225 | 3.2 | 8.0 | 0.00 | 0.61 | 0.00 | 86 | 1007.8 |
| 20260507053117 | 7 | 248 | 4.8 | 9.7 | 0.00 | 0.61 | 0.00 | 86 | 1007.9 |
| 20260507052617 | 7 | 225 | 3.2 | 6.4 | 0.00 | 0.61 | 0.00 | 86 | 1007.9 |
| 20260507052116 | 7 | 225 | 3.2 | 6.4 | 0.00 | 0.61 | 0.00 | 86 | 1007.9 |
| 20260507051617 | 7 | 248 | 1.6 | 3.2 | 0.00 | 0.61 | 0.00 | 86 | 1007.8 |
| 20260507051117 | 7 | 248 | 6.4 | 9.7 | 0.00 | 0.61 | 0.00 | 86 | 1008.0 |
| 20260507050616 | 7 | 203 | 3.2 | 6.4 | 0.00 | 0.61 | 0.00 | 86 | 1008.1 |
| 20260507050116 | 7 | 248 | 6.4 | 11.3 | 0.00 | 0.61 | 0.00 | 86 | 1008.2 |
| 20260507045616 | 7 | 225 | 3.2 | 6.4 | 0.00 | 0.61 | 0.00 | 86 | 1008.3 |
| 20260507045116 | 7 | 225 | 4.8 | 8.0 | 0.00 | 0.61 | 0.00 | 86 | 1008.4 |
| 20260507044617 | 7 | 225 | 1.6 | 4.8 | 0.00 | 0.61 | 0.00 | 86 | 1008.4 |
| 20260507044117 | 7 | 225 | 3.2 | 4.8 | 0.00 | 0.61 | 0.00 | 86 | 1008.5 |
| 20260507043616 | 7 | 225 | 3.2 | 9.7 | 0.00 | 0.61 | 0.00 | 85 | 1008.5 |
| 20260507043116 | 7 | 225 | 3.2 | 4.8 | 0.00 | 0.61 | 0.00 | 85 | 1008.6 |
| 20260507042616 | 7 | 248 | 4.8 | 11.3 | 0.00 | 0.61 | 0.00 | 85 | 1008.6 |
| 20260507042116 | 7 | 225 | 3.2 | 6.4 | 0.00 | 0.61 | 0.00 | 85 | 1008.5 |
| 20260507041637 | 7 | 248 | 6.4 | 11.3 | 0.00 | 0.61 | 0.00 | 85 | 1008.6 |
| 20260507041116 | 7 | 225 | 6.4 | 11.3 | 0.00 | 0.61 | 0.00 | 85 | 1008.6 |
| 20260507040616 | 7 | 248 | 6.4 | 9.7 | 0.00 | 0.61 | 0.00 | 85 | 1008.7 |
| 20260507040116 | 7 | 248 | 8.0 | 14.5 | 0.00 | 0.61 | 0.00 | 85 | 1008.7 |
| 20260507035616 | 7 | 270 | 4.8 | 8.0 | 0.00 | 0.61 | 0.61 | 85 | 1008.7 |
| 20260507035116 | 7 | 225 | 6.4 | 8.0 | 0.00 | 0.61 | 0.61 | 85 | 1008.7 |
| 20260507034616 | 7 | 225 | 8.0 | 12.9 | 0.00 | 0.61 | 0.61 | 85 | 1008.8 |
| 20260507034117 | 7 | 248 | 4.8 | 8.0 | 0.00 | 0.61 | 0.61 | 85 | 1008.8 |
| 20260507033616 | 7 | 293 | 4.8 | 12.9 | 0.00 | 0.61 | 0.61 | 85 | 1008.9 |
| 20260507033116 | 7 | 248 | 4.8 | 6.4 | 0.00 | 0.61 | 0.61 | 85 | 1008.9 |
| 20260507032617 | 7 | 248 | 4.8 | 6.4 | 0.00 | 0.61 | 0.61 | 85 | 1008.9 |
| 20260507032117 | 7 | 248 | 3.2 | 6.4 | 0.00 | 0.61 | 0.61 | 84 | 1008.9 |
| 20260507031616 | 7 | 270 | 3.2 | 4.8 | 0.00 | 0.61 | 0.61 | 84 | 1008.9 |
| 20260507031116 | 7 | 225 | 4.8 | 8.0 | 0.00 | 0.61 | 0.61 | 84 | 1009.0 |
| 20260507030616 | 7 | 248 | 4.8 | 6.4 | 0.00 | 0.61 | 0.61 | 83 | 1009.0 |
| 20260507030117 | 7 | 248 | 3.2 | 4.8 | 0.00 | 0.61 | 0.61 | 83 | 1009.0 |
| 20260507025618 | 7 | 248 | 3.2 | 4.8 | 0.00 | 0.61 | 0.61 | 83 | 1009.0 |
| 20260507025117 | 7 | 203 | 3.2 | 6.4 | 0.00 | 0.61 | 0.61 | 82 | 1009.0 |
| 20260507024616 | 7 | 248 | 4.8 | 6.4 | 0.00 | 0.61 | 0.61 | 82 | 1009.1 |
| 20260507024116 | 7 | 248 | 4.8 | 6.4 | 0.00 | 0.61 | 0.61 | 82 | 1009.1 |
| 20260507023616 | 7 | 248 | 4.8 | 6.4 | 0.00 | 0.61 | 0.61 | 81 | 1009.1 |
| 20260507023116 | 7 | 225 | 4.8 | 8.0 | 0.00 | 0.61 | 0.61 | 81 | 1009.1 |
| 20260507022637 | 8 | 225 | 6.4 | 8.0 | 0.00 | 0.61 | 0.61 | 81 | 1009.1 |
| 20260507022116 | 8 | 248 | 1.6 | 3.2 | 0.00 | 0.61 | 0.61 | 81 | 1009.2 |
| 20260507021617 | 8 | 248 | 4.8 | 6.4 | 0.00 | 0.61 | 0.61 | 80 | 1009.2 |
| 20260507021117 | 8 | 248 | 4.8 | 6.4 | 0.00 | 0.61 | 0.61 | 80 | 1009.2 |
| 20260507020616 | 8 | 248 | 1.6 | 3.2 | 0.00 | 0.61 | 0.61 | 80 | 1009.3 |
| 20260507020136 | 8 | 225 | 4.8 | 9.7 | 0.00 | 0.61 | 0.61 | 80 | 1009.3 |
| 20260507015616 | 8 | 225 | 6.4 | 8.0 | 0.00 | 0.61 | 0.61 | 79 | 1009.3 |
| 20260507015117 | 8 | 248 | 4.8 | 8.0 | 0.00 | 0.61 | 0.61 | 79 | 1009.4 |
| 20260507014617 | 8 | 248 | 6.4 | 9.7 | 0.00 | 0.61 | 0.61 | 79 | 1009.4 |
| 20260507014116 | 8 | 225 | 3.2 | 6.4 | 0.00 | 0.61 | 0.61 | 79 | 1009.5 |
| 20260507013617 | 8 | 248 | 4.8 | 6.4 | 0.00 | 0.61 | 0.61 | 79 | 1009.6 |
| 20260507013117 | 8 | 225 | 4.8 | 6.4 | 0.00 | 0.61 | 0.61 | 79 | 1009.6 |
| 20260507012616 | 8 | 248 | 4.8 | 6.4 | 0.00 | 0.61 | 0.61 | 78 | 1009.5 |
| 20260507012116 | 8 | 225 | 4.8 | 8.0 | 0.00 | 0.61 | 0.61 | 78 | 1009.4 |
| 20260507011616 | 8 | 225 | 6.4 | 12.9 | 0.00 | 0.61 | 0.61 | 78 | 1009.4 |
| 20260507010616 | 8 | 248 | 1.6 | 3.2 | 0.00 | 0.61 | 0.61 | 77 | 1009.4 |
| 20260507010116 | 8 | 225 | 4.8 | 8.0 | 0.00 | 0.61 | 0.61 | 77 | 1009.3 |
| 20260507005617 | 8 | 225 | 8.0 | 12.9 | 0.00 | 0.61 | 0.61 | 77 | 1009.3 |
| 20260507005116 | 8 | 248 | 6.4 | 11.3 | 0.00 | 0.61 | 0.61 | 77 | 1009.3 |
| 20260507004637 | 8 | 225 | 4.8 | 11.3 | 0.00 | 0.61 | 0.61 | 77 | 1009.2 |
| 20260507004116 | 8 | 248 | 4.8 | 8.0 | 0.00 | 0.61 | 0.61 | 77 | 1009.1 |
| 20260507003616 | 8 | 225 | 3.2 | 6.4 | 0.00 | 0.61 | 0.61 | 77 | 1009.1 |
| 20260507003117 | 8 | 248 | 4.8 | 11.3 | 0.00 | 0.61 | 0.61 | 77 | 1009.1 |
| 20260507002617 | 8 | 248 | 3.2 | 4.8 | 0.00 | 0.61 | 0.61 | 77 | 1009.0 |
| 20260507002116 | 8 | 248 | 4.8 | 6.4 | 0.00 | 0.61 | 0.61 | 77 | 1008.9 |
| 20260507001616 | 8 | 0.0 | 0.0 | 0.00 | 0.61 | 0.61 | 76 | 1008.6 | |
| 20260507001137 | 8 | 225 | 3.2 | 4.8 | 0.00 | 0.61 | 0.61 | 77 | 1008.7 |
| 20260507000636 | 8 | 0.0 | 1.6 | 0.00 | 0.61 | 0.61 | 76 | 1008.7 | |
| 20260507000116 | 8 | 225 | 3.2 | 6.4 | 0.00 | 0.61 | 0.61 | 76 | 1008.7 |
| 20260506235616 | 8 | 270 | 3.2 | 4.8 | 0.00 | 0.61 | 0.61 | 76 | 1008.7 |
| 20260506235117 | 8 | 293 | 3.2 | 6.4 | 0.00 | 0.61 | 0.61 | 76 | 1008.7 |
| 20260506234616 | 8 | 270 | 4.8 | 9.7 | 0.00 | 0.61 | 0.61 | 77 | 1008.7 |
| 20260506234116 | 8 | 225 | 4.8 | 8.0 | 0.00 | 0.61 | 0.61 | 78 | 1008.7 |
| 20260506233616 | 8 | 270 | 4.8 | 6.4 | 0.00 | 0.61 | 0.61 | 77 | 1008.7 |
| 20260506233116 | 8 | 248 | 4.8 | 8.0 | 0.00 | 0.61 | 0.61 | 77 | 1008.7 |
| 20260506232615 | 8 | 270 | 4.8 | 6.4 | 0.00 | 0.61 | 0.61 | 76 | 1008.7 |
| 20260506232136 | 8 | 248 | 9.7 | 12.9 | 0.00 | 0.61 | 0.61 | 76 | 1008.7 |
| 20260506231616 | 8 | 248 | 8.0 | 12.9 | 0.00 | 0.61 | 0.61 | 75 | 1008.6 |
| 20260506231115 | 8 | 248 | 3.2 | 6.4 | 0.00 | 0.61 | 0.61 | 75 | 1008.4 |
| 20260506230616 | 8 | 248 | 3.2 | 4.8 | 0.00 | 0.61 | 0.61 | 75 | 1008.4 |
| 20260506230115 | 8 | 270 | 6.4 | 11.3 | 0.00 | 0.61 | 0.61 | 75 | 1008.4 |
| 20260506225616 | 8 | 248 | 6.4 | 11.3 | 0.00 | 0.61 | 0.61 | 75 | 1008.5 |
| 20260506225136 | 8 | 248 | 3.2 | 9.7 | 0.00 | 0.61 | 0.61 | 74 | 1008.5 |
| 20260506224616 | 8 | 248 | 3.2 | 4.8 | 0.00 | 0.61 | 0.61 | 74 | 1008.5 |
| 20260506224136 | 8 | 248 | 4.8 | 8.0 | 0.00 | 0.61 | 0.61 | 73 | 1008.7 |
| 20260506223636 | 8 | 270 | 6.4 | 9.7 | 0.00 | 0.61 | 0.61 | 73 | 1008.5 |
| 20260506223115 | 8 | 248 | 4.8 | 6.4 | 0.00 | 0.61 | 0.61 | 73 | 1008.5 |
| 20260506222616 | 8 | 248 | 6.4 | 9.7 | 0.00 | 0.61 | 0.61 | 72 | 1008.6 |
| 20260506222118 | 9 | 225 | 6.4 | 9.7 | 0.00 | 0.61 | 0.61 | 71 | 1008.7 |
| 20260506221618 | 9 | 248 | 9.7 | 14.5 | 0.00 | 0.61 | 0.61 | 71 | 1008.8 |
| 20260506221118 | 9 | 270 | 4.8 | 6.4 | 0.00 | 0.61 | 0.61 | 70 | 1008.7 |
| 20260506220617 | 9 | 248 | 6.4 | 12.9 | 0.00 | 0.61 | 0.61 | 70 | 1008.7 |
| 20260506220118 | 8 | 225 | 6.4 | 11.3 | 0.00 | 0.61 | 0.61 | 71 | 1008.7 |
| 20260506215616 | 8 | 293 | 6.4 | 11.3 | 0.00 | 0.61 | 0.61 | 70 | 1008.7 |
| 20260506215117 | 9 | 270 | 9.7 | 12.9 | 0.00 | 0.61 | 0.61 | 70 | 1008.6 |
| 20260506214618 | 9 | 225 | 6.4 | 9.7 | 0.00 | 0.61 | 0.61 | 73 | 1008.7 |
| 20260506214118 | 9 | 293 | 3.2 | 4.8 | 0.00 | 0.61 | 0.61 | 73 | 1008.7 |
| 20260506213617 | 9 | 293 | 4.8 | 6.4 | 0.00 | 0.61 | 0.61 | 74 | 1008.7 |
| 20260506213117 | 8 | 293 | 3.2 | 3.2 | 0.00 | 0.61 | 0.61 | 74 | 1008.7 |
| 20260506212617 | 8 | 270 | 4.8 | 6.4 | 0.00 | 0.61 | 0.61 | 74 | 1008.6 |
| 20260506212117 | 8 | 248 | 4.8 | 6.4 | 0.00 | 0.61 | 0.61 | 74 | 1008.7 |
| 20260506211618 | 8 | 248 | 4.8 | 8.0 | 0.00 | 0.61 | 0.61 | 75 | 1008.6 |
| 20260506211117 | 8 | 248 | 4.8 | 6.4 | 0.00 | 0.61 | 0.61 | 75 | 1008.6 |
| 20260506210617 | 8 | 270 | 4.8 | 6.4 | 0.00 | 0.61 | 0.61 | 77 | 1008.7 |
| 20260506210118 | 8 | 270 | 4.8 | 9.7 | 0.00 | 0.61 | 0.61 | 77 | 1008.8 |
| 20260506205617 | 8 | 270 | 3.2 | 4.8 | 0.00 | 0.61 | 0.61 | 77 | 1008.9 |
| 20260506205119 | 8 | 248 | 8.0 | 12.9 | 0.00 | 0.61 | 0.61 | 76 | 1009.0 |
| 20260506204618 | 8 | 225 | 4.8 | 6.4 | 0.00 | 0.61 | 0.61 | 76 | 1009.0 |
| 20260506204117 | 8 | 270 | 4.8 | 8.0 | 0.00 | 0.61 | 0.61 | 77 | 1008.9 |
| 20260506203618 | 8 | 225 | 4.8 | 6.4 | 0.00 | 0.61 | 0.61 | 77 | 1008.8 |
| 20260506203118 | 8 | 270 | 8.0 | 11.3 | 0.00 | 0.61 | 0.61 | 76 | 1008.8 |
| 20260506202617 | 8 | 270 | 3.2 | 4.8 | 0.00 | 0.61 | 0.61 | 77 | 1008.8 |
| 20260506202118 | 8 | 270 | 6.4 | 11.3 | 0.00 | 0.61 | 0.61 | 77 | 1009.0 |
| 20260506201617 | 8 | 270 | 3.2 | 4.8 | 0.00 | 0.61 | 0.61 | 78 | 1009.0 |
| 20260506201117 | 8 | 270 | 6.4 | 12.9 | 0.00 | 0.61 | 0.61 | 79 | 1008.9 |
| 20260506200617 | 8 | 225 | 4.8 | 6.4 | 0.00 | 0.61 | 0.61 | 79 | 1009.1 |
| 20260506200117 | 8 | 248 | 4.8 | 9.7 | 0.00 | 0.61 | 0.61 | 79 | 1009.1 |
| 20260506195617 | 8 | 270 | 4.8 | 8.0 | 0.00 | 0.61 | 0.61 | 81 | 1008.9 |
| 20260506195117 | 8 | 270 | 4.8 | 8.0 | 0.00 | 0.61 | 0.61 | 81 | 1009.0 |
| 20260506194618 | 8 | 225 | 3.2 | 4.8 | 0.00 | 0.61 | 0.61 | 81 | 1009.1 |
| 20260506194117 | 8 | 248 | 3.2 | 6.4 | 0.00 | 0.61 | 0.61 | 80 | 1009.1 |
| 20260506193637 | 8 | 270 | 3.2 | 4.8 | 0.00 | 0.61 | 0.61 | 80 | 1009.2 |
| 20260506193117 | 8 | 248 | 6.4 | 9.7 | 0.00 | 0.61 | 0.61 | 80 | 1009.2 |
| 20260506192737 | 8 | 248 | 3.2 | 6.4 | 0.00 | 0.61 | 0.61 | 80 | 1009.3 |
| 20260506192137 | 8 | 248 | 4.8 | 6.4 | 0.00 | 0.61 | 0.61 | 79 | 1009.3 |
| 20260506191638 | 8 | 270 | 4.8 | 9.7 | 0.00 | 0.61 | 0.61 | 80 | 1009.3 |
| 20260506191117 | 8 | 270 | 4.8 | 6.4 | 0.00 | 0.61 | 0.61 | 80 | 1009.3 |
| 20260506190617 | 8 | 248 | 4.8 | 6.4 | 0.00 | 0.61 | 0.61 | 80 | 1009.3 |
| 20260506190118 | 8 | 270 | 4.8 | 6.4 | 0.00 | 0.61 | 0.61 | 79 | 1009.3 |
| 20260506185617 | 8 | 270 | 3.2 | 4.8 | 0.00 | 0.61 | 0.61 | 79 | 1009.4 |
| 20260506185118 | 8 | 248 | 6.4 | 8.0 | 0.00 | 0.61 | 0.61 | 80 | 1009.3 |
| 20260506184617 | 8 | 248 | 4.8 | 8.0 | 0.00 | 0.61 | 0.61 | 79 | 1009.3 |
| 20260506184117 | 8 | 270 | 4.8 | 6.4 | 0.00 | 0.61 | 0.61 | 80 | 1009.3 |
| 20260506183617 | 8 | 270 | 4.8 | 6.4 | 0.00 | 0.61 | 0.61 | 81 | 1009.1 |
| 20260506183117 | 8 | 225 | 1.6 | 3.2 | 0.00 | 0.61 | 0.61 | 81 | 1009.1 |
| 20260506182617 | 8 | 180 | 1.6 | 1.6 | 0.00 | 0.61 | 0.61 | 81 | 1009.1 |
| 20260506182117 | 8 | 0.0 | 0.0 | 0.00 | 0.61 | 0.61 | 81 | 1009.1 | |
| 20260506181617 | 8 | 248 | 4.8 | 6.4 | 0.00 | 0.61 | 0.61 | 81 | 1009.1 |
| 20260506181117 | 8 | 248 | 1.6 | 3.2 | 0.00 | 0.61 | 0.61 | 82 | 1009.2 |
| 20260506180637 | 8 | 0.0 | 3.2 | 0.00 | 0.61 | 0.61 | 82 | 1009.2 | |
| 20260506180117 | 8 | 248 | 1.6 | 4.8 | 0.00 | 0.61 | 0.61 | 83 | 1009.3 |
| 20260506175617 | 8 | 270 | 1.6 | 4.8 | 0.00 | 0.61 | 0.61 | 83 | 1009.4 |
| 20260506175117 | 8 | 0.0 | 0.0 | 0.00 | 0.61 | 0.61 | 86 | 1009.4 | |
| 20260506174617 | 7 | 0.0 | 3.2 | 0.00 | 0.61 | 0.61 | 86 | 1009.5 | |
| 20260506174117 | 7 | 0.0 | 1.6 | 0.00 | 0.61 | 0.61 | 86 | 1009.3 | |
| 20260506173617 | 7 | 203 | 3.2 | 6.4 | 0.00 | 0.61 | 0.61 | 87 | 1009.5 |
| 20260506173117 | 7 | 0.0 | 0.0 | 0.00 | 0.61 | 0.61 | 88 | 1009.6 | |
| 20260506172617 | 7 | 0.0 | 1.6 | 0.00 | 0.61 | 0.61 | 87 | 1009.7 | |
| 20260506172137 | 6 | 180 | 1.6 | 3.2 | 0.00 | 0.61 | 0.61 | 87 | 1009.8 |
| 20260506171617 | 6 | 248 | 1.6 | 3.2 | 0.03 | 0.61 | 0.61 | 87 | 1009.9 |
| 20260506171137 | 6 | 270 | 3.2 | 4.8 | 0.03 | 0.61 | 0.61 | 87 | 1009.9 |
| 20260506170617 | 6 | 248 | 1.6 | 3.2 | 0.03 | 0.61 | 0.61 | 87 | 1010.0 |
| 20260506170117 | 6 | 203 | 1.6 | 3.2 | 0.03 | 0.61 | 0.61 | 88 | 1009.9 |
| 20260506165617 | 6 | 203 | 3.2 | 6.4 | 0.03 | 0.61 | 0.61 | 88 | 1010.1 |
| 20260506165117 | 6 | 270 | 1.6 | 4.8 | 0.05 | 0.61 | 0.61 | 88 | 1010.1 |
| 20260506164617 | 6 | 270 | 1.6 | 4.8 | 0.05 | 0.61 | 0.61 | 89 | 1010.2 |
| 20260506164117 | 6 | 248 | 3.2 | 6.4 | 0.05 | 0.61 | 0.61 | 89 | 1010.0 |
| 20260506163617 | 6 | 248 | 1.6 | 6.4 | 0.05 | 0.61 | 0.61 | 90 | 1010.1 |
| 20260506163116 | 6 | 203 | 3.2 | 6.4 | 0.05 | 0.61 | 0.61 | 90 | 1010.1 |
| 20260506162616 | 6 | 225 | 1.6 | 3.2 | 0.05 | 0.61 | 0.61 | 90 | 1010.2 |
| 20260506162117 | 6 | 248 | 3.2 | 4.8 | 0.05 | 0.61 | 0.61 | 89 | 1010.3 |
| 20260506161617 | 6 | 225 | 4.8 | 6.4 | 0.05 | 0.61 | 0.61 | 90 | 1010.4 |
| 20260506161137 | 6 | 270 | 3.2 | 4.8 | 0.05 | 0.61 | 0.61 | 90 | 1010.3 |
| 20260506160617 | 6 | 203 | 1.6 | 4.8 | 0.05 | 0.61 | 0.61 | 90 | 1010.4 |
| 20260506160117 | 6 | 203 | 3.2 | 4.8 | 0.08 | 0.61 | 0.61 | 90 | 1010.6 |
| 20260506155617 | 6 | 203 | 1.6 | 3.2 | 0.08 | 0.61 | 0.61 | 90 | 1010.6 |
| 20260506155137 | 6 | 225 | 3.2 | 6.4 | 0.05 | 0.58 | 0.58 | 90 | 1010.6 |
| 20260506154616 | 6 | 203 | 1.6 | 3.2 | 0.08 | 0.58 | 0.58 | 90 | 1010.7 |
| 20260506154137 | 6 | 180 | 4.8 | 9.7 | 0.10 | 0.58 | 0.58 | 90 | 1010.6 |
| 20260506153616 | 6 | 203 | 1.6 | 4.8 | 0.10 | 0.56 | 0.56 | 90 | 1010.7 |
| 20260506153116 | 6 | 203 | 1.6 | 6.4 | 0.13 | 0.56 | 0.56 | 90 | 1010.6 |
| 20260506152617 | 6 | 180 | 4.8 | 8.0 | 0.13 | 0.56 | 0.56 | 90 | 1010.6 |
| 20260506152116 | 6 | 248 | 4.8 | 8.0 | 0.15 | 0.56 | 0.56 | 90 | 1010.7 |
| 20260506151616 | 6 | 248 | 4.8 | 9.7 | 0.15 | 0.56 | 0.56 | 90 | 1010.9 |
| 20260506151116 | 6 | 225 | 4.8 | 4.8 | 0.15 | 0.53 | 0.53 | 89 | 1010.8 |
| 20260506150616 | 6 | 248 | 1.6 | 3.2 | 0.15 | 0.53 | 0.53 | 89 | 1010.8 |
| 20260506150116 | 6 | 225 | 4.8 | 8.0 | 0.15 | 0.51 | 0.51 | 90 | 1010.8 |
| 20260506145637 | 6 | 225 | 3.2 | 4.8 | 0.15 | 0.51 | 0.51 | 90 | 1010.8 |
| 20260506145116 | 6 | 225 | 1.6 | 4.8 | 0.15 | 0.51 | 0.51 | 90 | 1010.9 |
| 20260506144616 | 6 | 203 | 4.8 | 9.7 | 0.15 | 0.51 | 0.51 | 90 | 1010.7 |
| 20260506144117 | 6 | 203 | 1.6 | 3.2 | 0.15 | 0.48 | 0.48 | 90 | 1010.6 |
| 20260506143616 | 6 | 225 | 3.2 | 6.4 | 0.15 | 0.46 | 0.46 | 90 | 1010.6 |
| 20260506143116 | 6 | 0.0 | 3.2 | 0.13 | 0.43 | 0.43 | 90 | 1010.6 | |
| 20260506142617 | 6 | 0.0 | 0.0 | 0.15 | 0.43 | 0.43 | 90 | 1010.6 | |
| 20260506142116 | 6 | 203 | 1.6 | 3.2 | 0.15 | 0.43 | 0.43 | 90 | 1010.6 |
| 20260506141616 | 6 | 158 | 3.2 | 6.4 | 0.13 | 0.41 | 0.41 | 90 | 1010.7 |
| 20260506141116 | 6 | 0.0 | 1.6 | 0.15 | 0.41 | 0.41 | 89 | 1010.7 | |
| 20260506140617 | 6 | 248 | 3.2 | 6.4 | 0.13 | 0.38 | 0.38 | 89 | 1010.7 |
| 20260506140116 | 6 | 248 | 4.8 | 8.0 | 0.13 | 0.38 | 0.38 | 89 | 1010.7 |
| 20260506135616 | 6 | 225 | 4.8 | 8.0 | 0.13 | 0.36 | 0.36 | 89 | 1010.7 |
| 20260506135116 | 6 | 270 | 6.4 | 9.7 | 0.13 | 0.36 | 0.36 | 89 | 1010.7 |
| 20260506134616 | 6 | 225 | 4.8 | 8.0 | 0.10 | 0.33 | 0.33 | 89 | 1010.6 |
| 20260506134137 | 6 | 225 | 1.6 | 3.2 | 0.10 | 0.33 | 0.33 | 89 | 1010.5 |
| 20260506133616 | 6 | 225 | 4.8 | 9.7 | 0.10 | 0.33 | 0.33 | 89 | 1010.5 |
| 20260506133116 | 6 | 203 | 1.6 | 4.8 | 0.13 | 0.33 | 0.33 | 88 | 1010.4 |
| 20260506132637 | 6 | 180 | 4.8 | 8.0 | 0.10 | 0.30 | 0.30 | 88 | 1010.4 |
| 20260506132116 | 6 | 180 | 4.8 | 8.0 | 0.08 | 0.28 | 0.28 | 88 | 1010.5 |
| 20260506131616 | 6 | 203 | 3.2 | 6.4 | 0.10 | 0.28 | 0.28 | 87 | 1010.5 |
| 20260506131116 | 6 | 248 | 3.2 | 4.8 | 0.10 | 0.25 | 0.25 | 87 | 1010.5 |
| 20260506130616 | 6 | 225 | 4.8 | 6.4 | 0.10 | 0.25 | 0.25 | 87 | 1010.4 |
| 20260506130136 | 6 | 225 | 1.6 | 3.2 | 0.10 | 0.25 | 0.25 | 87 | 1010.2 |
| 20260506125616 | 6 | 0.0 | 1.6 | 0.10 | 0.23 | 0.25 | 87 | 1010.3 | |
| 20260506125116 | 6 | 203 | 1.6 | 4.8 | 0.10 | 0.23 | 0.23 | 87 | 1010.4 |
| 20260506124617 | 6 | 248 | 3.2 | 6.4 | 0.10 | 0.23 | 0.23 | 86 | 1010.5 |
| 20260506124116 | 7 | 0.0 | 1.6 | 0.13 | 0.23 | 0.23 | 86 | 1010.5 | |
| 20260506123616 | 7 | 180 | 3.2 | 8.0 | 0.10 | 0.23 | 0.23 | 86 | 1010.4 |
| 20260506123136 | 7 | 0.0 | 1.6 | 0.10 | 0.20 | 0.20 | 86 | 1010.4 | |
| 20260506122616 | 7 | 248 | 1.6 | 3.2 | 0.10 | 0.20 | 0.20 | 85 | 1010.4 |
| 20260506122116 | 6 | 225 | 1.6 | 6.4 | 0.10 | 0.20 | 0.20 | 85 | 1010.3 |
| 20260506121616 | 6 | 225 | 1.6 | 3.2 | 0.10 | 0.18 | 0.18 | 84 | 1010.4 |
| 20260506121116 | 6 | 0.0 | 1.6 | 0.08 | 0.15 | 0.15 | 84 | 1010.5 | |
| 20260506120616 | 6 | 270 | 3.2 | 4.8 | 0.08 | 0.15 | 0.15 | 84 | 1010.6 |
| 20260506120137 | 7 | 270 | 3.2 | 4.8 | 0.10 | 0.15 | 0.15 | 85 | 1010.6 |
| 20260506115616 | 7 | 248 | 4.8 | 6.4 | 0.08 | 0.18 | 0.15 | 86 | 1010.5 |
| 20260506115116 | 7 | 248 | 6.4 | 9.7 | 0.08 | 0.18 | 0.15 | 86 | 1010.6 |
| 20260506114616 | 7 | 248 | 4.8 | 6.4 | 0.10 | 0.18 | 0.15 | 85 | 1010.8 |
| 20260506114116 | 7 | 225 | 4.8 | 8.0 | 0.08 | 0.15 | 0.13 | 86 | 1010.8 |
| 20260506113636 | 7 | 248 | 8.0 | 12.9 | 0.10 | 0.15 | 0.13 | 85 | 1010.8 |
| 20260506113116 | 7 | 225 | 4.8 | 9.7 | 0.08 | 0.15 | 0.10 | 86 | 1010.8 |
| 20260506112616 | 7 | 248 | 3.2 | 6.4 | 0.08 | 0.15 | 0.10 | 85 | 1010.8 |
| 20260506112116 | 7 | 248 | 3.2 | 6.4 | 0.08 | 0.15 | 0.10 | 84 | 1010.8 |
| 20260506111616 | 7 | 248 | 3.2 | 4.8 | 0.05 | 0.13 | 0.08 | 84 | 1010.7 |
| 20260506111137 | 7 | 248 | 4.8 | 8.0 | 0.05 | 0.13 | 0.08 | 84 | 1010.7 |
| 20260506110615 | 8 | 248 | 4.8 | 6.4 | 0.05 | 0.13 | 0.08 | 84 | 1010.8 |
| 20260506110216 | 8 | 225 | 6.4 | 9.7 | 0.05 | 0.10 | 0.05 | 83 | 1010.8 |
| 20260506105636 | 8 | 248 | 3.2 | 4.8 | 0.05 | 0.10 | 0.05 | 84 | 1010.8 |
| 20260506105116 | 8 | 0.0 | 1.6 | 0.05 | 0.10 | 0.05 | 82 | 1010.6 | |
| 20260506104616 | 8 | 270 | 3.2 | 6.4 | 0.05 | 0.08 | 0.05 | 81 | 1010.4 |
| 20260506104116 | 8 | 0.0 | 3.2 | 0.05 | 0.08 | 0.05 | 80 | 1010.2 | |
| 20260506103616 | 8 | 248 | 3.2 | 4.8 | 0.03 | 0.05 | 0.03 | 79 | 1010.2 |
| 20260506103136 | 8 | 248 | 1.6 | 3.2 | 0.03 | 0.05 | 0.03 | 79 | 1010.1 |
| 20260506102616 | 8 | 270 | 4.8 | 4.8 | 0.03 | 0.05 | 0.03 | 80 | 1010.1 |
| 20260506102137 | 8 | 248 | 4.8 | 8.0 | 0.03 | 0.05 | 0.03 | 81 | 1009.9 |
| 20260506101615 | 8 | 270 | 3.2 | 4.8 | 0.03 | 0.05 | 0.03 | 81 | 1009.9 |
| 20260506101116 | 8 | 248 | 3.2 | 4.8 | 0.03 | 0.05 | 0.03 | 81 | 1010.0 |
| 20260506100618 | 8 | 248 | 3.2 | 4.8 | 0.03 | 0.05 | 0.03 | 81 | 1009.9 |
| 20260506100117 | 8 | 225 | 4.8 | 9.7 | 0.00 | 0.05 | 0.00 | 81 | 1010.0 |
| 20260506095618 | 8 | 203 | 3.2 | 8.0 | 0.00 | 0.05 | 0.00 | 81 | 1009.9 |
| 20260506095118 | 8 | 203 | 4.8 | 9.7 | 0.00 | 0.05 | 0.00 | 81 | 1009.9 |
| 20260506094617 | 9 | 225 | 4.8 | 6.4 | 0.00 | 0.05 | 0.00 | 80 | 1009.9 |
| 20260506094117 | 9 | 248 | 3.2 | 4.8 | 0.00 | 0.05 | 0.00 | 80 | 1010.0 |
| 20260506093615 | 9 | 225 | 8.0 | 11.3 | 0.00 | 0.05 | 0.00 | 80 | 1009.9 |
| 20260506093117 | 9 | 225 | 1.6 | 4.8 | 0.00 | 0.05 | 0.00 | 79 | 1009.8 |
| 20260506092618 | 9 | 248 | 8.0 | 12.9 | 0.00 | 0.05 | 0.00 | 79 | 1009.7 |
| 20260506092117 | 9 | 248 | 8.0 | 14.5 | 0.00 | 0.05 | 0.00 | 79 | 1009.7 |
| 20260506091617 | 9 | 270 | 9.7 | 14.5 | 0.00 | 0.05 | 0.00 | 79 | 1009.7 |
| 20260506091117 | 9 | 270 | 8.0 | 11.3 | 0.00 | 0.05 | 0.00 | 79 | 1009.7 |
| 20260506090638 | 9 | 225 | 8.0 | 12.9 | 0.00 | 0.05 | 0.00 | 79 | 1009.6 |
| 20260506090138 | 9 | 248 | 4.8 | 8.0 | 0.00 | 0.05 | 0.00 | 79 | 1009.5 |
| 20260506085658 | 9 | 248 | 8.0 | 9.7 | 0.00 | 0.05 | 0.00 | 79 | 1009.4 |
| 20260506085117 | 9 | 248 | 4.8 | 9.7 | 0.00 | 0.05 | 0.00 | 78 | 1009.4 |
| 20260506084617 | 9 | 248 | 1.6 | 4.8 | 0.00 | 0.05 | 0.00 | 78 | 1009.5 |
| 20260506084117 | 9 | 248 | 4.8 | 8.0 | 0.00 | 0.05 | 0.00 | 78 | 1009.7 |
| 20260506083618 | 9 | 248 | 3.2 | 6.4 | 0.00 | 0.05 | 0.00 | 78 | 1009.7 |
| 20260506083117 | 9 | 225 | 8.0 | 12.9 | 0.00 | 0.05 | 0.00 | 78 | 1009.7 |
| 20260506082617 | 9 | 225 | 11.3 | 16.1 | 0.00 | 0.05 | 0.00 | 78 | 1009.8 |
| 20260506082117 | 9 | 270 | 4.8 | 8.0 | 0.00 | 0.05 | 0.00 | 78 | 1009.8 |
| 20260506081617 | 9 | 270 | 6.4 | 14.5 | 0.00 | 0.05 | 0.00 | 78 | 1009.7 |
| 20260506081118 | 10 | 248 | 4.8 | 6.4 | 0.00 | 0.05 | 0.00 | 78 | 1009.8 |
| 20260506080617 | 10 | 248 | 4.8 | 8.0 | 0.00 | 0.05 | 0.00 | 78 | 1009.6 |
| 20260506080117 | 10 | 270 | 4.8 | 8.0 | 0.00 | 0.05 | 0.00 | 78 | 1009.6 |
| 20260506073117 | 10 | 225 | 8.0 | 11.3 | 0.00 | 0.05 | 0.00 | 78 | 1009.6 |
| 20260506072617 | 10 | 225 | 11.3 | 19.3 | 0.00 | 0.05 | 0.00 | 78 | 1009.7 |
| 20260506072117 | 10 | 270 | 9.7 | 14.5 | 0.00 | 0.05 | 0.00 | 79 | 1009.6 |
| 20260506071617 | 10 | 248 | 4.8 | 12.9 | 0.00 | 0.05 | 0.00 | 79 | 1009.6 |
| 20260506071137 | 10 | 270 | 9.7 | 19.3 | 0.00 | 0.05 | 0.00 | 78 | 1009.6 |